[[{"header":{"parameterUnit":"m.s-1","parameterCategory":1,"la1":30.2991,"la2":30.254,"lo1":-89.0895,"lo2":-89.0444,"dy":0.0017,"dx":0.0017,"nx":28,"ny":28,"refTime":"2023-08-20T21:00:00:Z","depth":0,"parameterNumber":2,"parameterNumberName":"U-component_of_WINDS"},"data":[0,0,0,0,0,0,0,0,0,0,0,0,0,0,0,0,0,0,0,0,0,0,0,0,0,0,0,0,0,0,0,0,0,0,0,0,0,0,0,0,0,0,0,0,0,0,0,0,0,0,0,0,0,0,0,0,0,0,-0.8225,-0.8224,0,-0.8071,-0.807,-0.8068,-0.7991,-0.7991,-0.7991,-0.7991,-0.7832,-0.7828,-0.7824,0,0,0,0,0,0,0,0,0,0,0,0,0,-0.8452,-0.8449,-0.8225,-0.8223,-0.8222,-0.8072,-0.807,-0.8067,-0.7991,-0.7991,-0.7991,-0.7991,-0.7834,-0.7829,-0.7824,0,0,0,0,0,0,0,0,0,0,0,0,0,-0.8332,-0.8447,-0.8226,-0.8165,-0.8158,-0.8072,-0.807,-0.8067,-0.7991,-0.7991,-0.7991,-0.7991,-0.7835,-0.7829,-0.7823,-0.7785,0,0,-0.7804,-0.7801,0,0,0,0,0,0,0,0,-0.8339,-0.8323,-0.8176,-0.8169,-0.8161,-0.805,-0.8091,-0.7972,-0.7991,-0.8054,-0.7991,-0.7991,-0.7905,-0.7893,-0.7864,-0.7778,-0.7771,-0.7803,-0.7799,-0.7797,-0.7795,0,0,0,0,0,0,0,-0.8347,-0.833,-0.8164,-0.8174,-0.8165,-0.8146,-0.8128,-0.8069,-0.7982,-0.8049,-0.8043,-0.8026,-0.7901,-0.787,-0.786,-0.7769,-0.7803,-0.7798,-0.7794,-0.7792,-0.7644,-0.7644,0,0,0,0,0,0,-0.8365,-0.8337,-0.8169,-0.816,-0.8252,-0.8142,-0.8122,-0.8086,-0.7982,-0.7966,-0.8026,-0.8023,-0.7881,-0.7867,-0.7854,-0.7803,-0.7797,-0.7791,-0.7787,-0.7644,-0.7644,-0.7644,0,0,0,0,0,0,-0.837,-0.8351,-0.8175,-0.8247,-0.8223,-0.8138,-0.8097,-0.8083,-0.8052,-0.7965,-0.7949,-0.8011,-0.788,-0.7863,-0.7803,-0.7796,-0.7788,-0.7782,-0.7644,-0.7644,-0.7644,-0.7701,0,0,0,0,0,0,-0.8377,-0.8353,-0.8338,-0.8247,-0.8219,-0.8127,-0.8097,-0.808,-0.8042,-0.8036,-0.7946,-0.7931,-0.7879,-0.7813,-0.7797,-0.7788,-0.7778,-0.7645,-0.7644,-0.7644,-0.7699,-0.7703,-0.7706,0,0,0,0,0,-0.8386,-0.836,-0.8338,-0.8318,-0.8199,-0.8127,-0.8111,-0.8052,-0.8042,-0.8025,-0.7969,-0.7934,-0.78,-0.7807,-0.7789,-0.7777,-0.7645,-0.7644,-0.7644,-0.7698,-0.7702,-0.7705,0,0,0,0,0,0,-0.8452,-0.8347,-0.8321,-0.8265,-0.8206,-0.8114,-0.8092,-0.8058,-0.8,-0.7997,-0.7925,-0.7906,-0.7853,-0.7809,-0.7819,-0.7736,-0.7719,-0.7715,-0.7766,-0.7769,-0.7773,-0.7784,-0.7772,0,0,0,0,0,-0.846,-0.8411,-0.8322,-0.8281,-0.8253,-0.8178,-0.8145,-0.8104,-0.8039,-0.8014,-0.7953,-0.7892,-0.7836,-0.78,-0.7743,-0.7693,-0.7672,-0.7676,-0.7679,-0.7682,-0.7679,-0.765,-0.765,-0.7643,-0.7643,-0.7643,0,0,-0.8476,-0.8413,-0.8386,-0.8293,-0.8242,-0.8193,-0.8157,-0.8106,-0.8069,-0.8006,-0.7946,-0.79,-0.7826,-0.7771,-0.7744,-0.7733,-0.7677,-0.7682,-0.7685,-0.768,-0.7649,-0.765,-0.7651,-0.7643,-0.7643,-0.7643,0,0,-0.8481,-0.8428,-0.8388,-0.8338,-0.8262,-0.8213,-0.8204,-0.8117,-0.8084,-0.8023,-0.7975,-0.7929,-0.7834,-0.7784,-0.7746,-0.7733,-0.7699,-0.7717,-0.7733,-0.7705,-0.7706,-0.7706,-0.7701,-0.77,-0.7714,-0.7714,-0.7714,0,-0.851,-0.8434,-0.8372,-0.8324,-0.8285,-0.8226,-0.8186,-0.814,-0.8049,-0.8023,-0.8013,-0.7892,-0.7839,-0.7771,-0.7768,-0.774,-0.7727,-0.7726,-0.7711,-0.771,-0.7709,-0.7704,-0.7703,-0.7717,-0.7717,-0.7716,-0.7716,0,-0.8475,-0.8423,-0.84,-0.8315,-0.8273,-0.8229,-0.816,-0.8125,-0.8088,-0.804,-0.7979,-0.7913,-0.7842,-0.7823,-0.7787,-0.7751,-0.7747,-0.7724,-0.7706,-0.7714,-0.7708,-0.7705,-0.7721,-0.772,-0.7719,-0.7718,0,0,-0.8516,-0.8397,-0.839,-0.8351,-0.8263,-0.8221,-0.8175,-0.8107,-0.8078,-0.8018,-0.7977,-0.7899,-0.7878,-0.7835,-0.7792,-0.7768,-0.7762,-0.7748,-0.7745,-0.7753,-0.7719,-0.7736,-0.7735,-0.7739,-0.7738,-0.7738,-0.7725,0,-0.8508,-0.8422,-0.8365,-0.8302,-0.8254,-0.8198,-0.8158,-0.8099,-0.8054,-0.8006,-0.7954,-0.79,-0.7876,-0.785,-0.7824,-0.7768,-0.7754,-0.7768,-0.77,-0.7699,-0.772,-0.7731,-0.7749,-0.774,-0.7722,-0.7722,-0.7721,0,-0.8487,-0.8429,-0.8361,-0.8279,-0.8257,-0.8222,-0.8155,-0.811,-0.8043,-0.8011,-0.7964,-0.7921,-0.787,-0.7857,-0.7785,-0.7797,-0.7765,-0.7734,-0.7733,-0.7724,-0.771,-0.7723,-0.7736,-0.7735,-0.7717,-0.7717,-0.7717,0,-0.8524,-0.8429,-0.8376,-0.8344,-0.8247,-0.8224,-0.8183,-0.8116,-0.8078,-0.802,-0.7995,-0.7931,-0.7896,-0.7848,-0.7789,-0.7785,-0.7724,-0.7705,-0.7696,-0.7698,-0.7685,-0.7687,-0.7694,-0.7666,-0.7666,-0.7666,-0.7666,0,-0.8521,-0.8482,-0.8392,-0.8359,-0.8314,-0.8249,-0.8206,-0.816,-0.8101,-0.8059,-0.8006,-0.7968,-0.7892,-0.7844,-0.7798,-0.7746,-0.7731,-0.7704,-0.7692,-0.7708,-0.7712,-0.7687,-0.7686,-0.7666,-0.7666,-0.7666,-0.7666,0,-0.8554,-0.8492,-0.8431,-0.8345,-0.8322,-0.8293,-0.8219,-0.8185,-0.8137,-0.8084,-0.8068,-0.7992,-0.7933,-0.787,-0.7789,-0.7758,-0.7709,-0.7692,-0.7732,-0.7725,-0.7719,-0.7721,-0.771,-0.7705,-0.7682,-0.7682,-0.7682,0,-0.8556,-0.8525,-0.8436,-0.8404,-0.8364,-0.8313,-0.8275,-0.821,-0.8173,-0.8095,-0.8071,-0.8008,-0.7955,-0.7863,-0.7801,-0.7739,-0.7721,-0.7721,-0.7711,-0.7729,-0.7721,-0.7723,-0.772,-0.7724,-0.7725,-0.7725,-0.7726,0,-0.8567,-0.8538,-0.8485,-0.8422,-0.8378,-0.8325,-0.827,-0.8247,-0.8171,-0.8132,-0.8071,-0.803,-0.7948,-0.7887,-0.7818,-0.7775,-0.7738,-0.773,-0.7724,-0.7741,-0.7765,-0.7752,-0.774,-0.773,-0.7729,-0.7729,-0.7729,-0.7729,-0.8584,-0.8554,-0.8487,-0.843,-0.8382,-0.8332,-0.8297,-0.8244,-0.8193,-0.8121,-0.8086,-0.8026,-0.7961,-0.7864,-0.7823,-0.7775,-0.7763,-0.7755,-0.7753,-0.7752,-0.7757,-0.7773,-0.7762,-0.7762,-0.7761,-0.7761,-0.7761,0,-0.8592,-0.8546,-0.8495,-0.842,-0.8375,-0.8345,-0.8282,-0.8247,-0.8195,-0.8137,-0.8086,-0.8017,-0.7957,-0.7891,-0.7827,-0.7802,-0.7783,-0.7787,-0.7788,-0.7779,-0.7771,-0.7782,-0.7803,-0.7803,-0.7803,-0.7803,-0.7803,-0.7803,-0.8591,-0.8538,-0.8502,-0.8425,-0.8379,-0.8321,-0.8288,-0.8241,-0.8195,-0.812,-0.8071,-0.8028,-0.7966,-0.7898,-0.7842,-0.7824,-0.7803,-0.7812,-0.779,-0.7783,-0.7779,-0.7776,-0.7786,-0.7808,-0.7808,-0.7802,-0.7802,-0.7802]},{"header":{"parameterUnit":"m.s-1","parameterCategory":1,"la1":30.2991,"la2":30.254,"lo1":-89.0895,"lo2":-89.0444,"dy":0.0017,"dx":0.0017,"nx":28,"ny":28,"refTime":"2023-08-20T21:00:00:Z","depth":0,"parameterNumber":3,"parameterNumberName":"V-component_of_WINDS"},"data":[0,0,0,0,0,0,0,0,0,0,0,0,0,0,0,0,0,0,0,0,0,0,0,0,0,0,0,0,0,0,0,0,0,0,0,0,0,0,0,0,0,0,0,0,0,0,0,0,0,0,0,0,0,0,0,0,0,0,1.1083,1.1082,0,1.0996,1.0995,1.0994,1.099,1.0991,1.0992,1.0993,1.09,1.0897,1.0894,0,0,0,0,0,0,0,0,0,0,0,0,0,1.1243,1.124,1.1083,1.1082,1.1081,1.0996,1.0995,1.0994,1.099,1.0991,1.0992,1.0993,1.0901,1.0897,1.0893,0,0,0,0,0,0,0,0,0,0,0,0,0,1.1166,1.1239,1.1083,1.1069,1.1067,1.0997,1.0995,1.0994,1.0989,1.0991,1.0992,1.0994,1.0903,1.0898,1.0893,1.083,0,0,1.0877,1.0875,0,0,0,0,0,0,0,0,1.1171,1.116,1.1072,1.107,1.1067,1.1006,1.1017,1.0939,1.0989,1.1019,1.0993,1.0995,1.0934,1.0926,1.0906,1.0826,1.0822,1.0877,1.0873,1.0871,1.087,0,0,0,0,0,0,0,1.1176,1.1164,1.1049,1.1071,1.1068,1.1066,1.1056,1.1002,1.0968,1.1016,1.1016,1.1006,1.0933,1.0911,1.0904,1.0821,1.0877,1.0872,1.0869,1.0867,1.0683,1.0682,0,0,0,0,0,0,1.1184,1.1169,1.1051,1.1046,1.1124,1.1061,1.1051,1.1024,1.0969,1.0962,1.1004,1.1006,1.0919,1.091,1.0901,1.0823,1.0871,1.0866,1.0863,1.0685,1.0683,1.0681,0,0,0,0,0,0,1.1188,1.1174,1.1055,1.1107,1.1092,1.1057,1.1026,1.1021,1.1,1.096,1.0954,1.0989,1.092,1.0908,1.0848,1.082,1.0864,1.0859,1.0687,1.0685,1.0682,1.0667,0,0,0,0,0,0,1.1192,1.1175,1.1152,1.1107,1.1089,1.1004,1.1024,1.1018,1.0991,1.0992,1.0944,1.0937,1.092,1.0856,1.0843,1.0813,1.0855,1.069,1.0686,1.0683,1.067,1.0664,1.0659,0,0,0,0,0,1.1198,1.1151,1.1151,1.1137,1.1059,1.1002,1.0992,1.0975,1.0989,1.0964,1.0939,1.0939,1.0826,1.0849,1.0835,1.0804,1.0691,1.0687,1.0683,1.0672,1.0665,1.0659,0,0,0,0,0,0,1.1192,1.1144,1.1144,1.108,1.1046,1.1002,1.097,1.0968,1.0927,1.093,1.0909,1.0898,1.0838,1.0815,1.0843,1.074,1.076,1.0753,1.0756,1.075,1.0744,1.075,1.0851,0,0,0,0,0,1.1184,1.1142,1.1103,1.1051,1.1033,1.1005,1.098,1.0969,1.0932,1.0917,1.0887,1.085,1.0806,1.0777,1.0734,1.0668,1.0656,1.0639,1.0634,1.063,1.0623,1.0584,1.0576,1.0668,1.0668,1.0668,0,0,1.1165,1.1134,1.1109,1.1049,1.102,1.0977,1.0992,1.0946,1.0913,1.0909,1.085,1.0828,1.0785,1.0721,1.0691,1.07,1.0595,1.0625,1.0622,1.0617,1.0579,1.0571,1.0563,1.0665,1.0666,1.0666,0,0,1.1108,1.1082,1.1034,1.1006,1.0964,1.0946,1.0934,1.0891,1.0876,1.0817,1.0813,1.0774,1.0698,1.0667,1.0642,1.0575,1.0572,1.0562,1.0533,1.0496,1.0489,1.0482,1.0456,1.0447,1.0556,1.0556,1.0556,0,1.109,1.1025,1.101,1.0964,1.0936,1.0933,1.0884,1.0857,1.0803,1.0784,1.0795,1.07,1.0672,1.0599,1.0583,1.0564,1.0549,1.0566,1.0491,1.0484,1.0478,1.0453,1.0443,1.0555,1.0555,1.0555,1.0555,0,1.1004,1.0959,1.0926,1.0874,1.0844,1.0797,1.0773,1.0744,1.0737,1.0718,1.0657,1.0623,1.0572,1.0555,1.0547,1.0482,1.0488,1.0496,1.0515,1.0468,1.0444,1.0435,1.0553,1.0553,1.0554,1.0554,0,0,1.0938,1.088,1.0867,1.0844,1.0797,1.0762,1.0715,1.0667,1.0641,1.0604,1.0562,1.05,1.0506,1.0478,1.0467,1.0435,1.0381,1.0446,1.0444,1.0433,1.0305,1.0297,1.0286,1.0381,1.0379,1.0378,1.0307,0,1.0874,1.079,1.0775,1.0701,1.0659,1.0656,1.0614,1.0581,1.0561,1.0522,1.0501,1.0455,1.0469,1.0451,1.042,1.0395,1.0355,1.04,1.034,1.0338,1.0347,1.0274,1.0266,1.0201,1.0298,1.0297,1.0295,0,1.0788,1.0749,1.0671,1.063,1.0612,1.0575,1.0529,1.0493,1.0454,1.0443,1.0411,1.0404,1.0354,1.0378,1.0307,1.0337,1.0313,1.0297,1.0294,1.0285,1.0311,1.0261,1.018,1.017,1.0281,1.0282,1.0283,0,1.0745,1.0674,1.0617,1.0597,1.0549,1.0523,1.0501,1.0465,1.0437,1.0397,1.0378,1.0334,1.0308,1.0273,1.0253,1.0273,1.0183,1.0206,1.017,1.017,1.0148,1.0149,1.006,1.0137,1.0138,1.0138,1.0138,0,1.0673,1.0625,1.0597,1.0562,1.0508,1.0492,1.0438,1.0417,1.0385,1.0345,1.034,1.0302,1.0281,1.024,1.0224,1.0167,1.0156,1.0144,1.0139,1.0142,1.0143,1.0123,1.0126,1.0135,1.0136,1.0136,1.0137,0,1.0614,1.0594,1.0532,1.0492,1.0481,1.0442,1.0407,1.0372,1.0354,1.0304,1.0291,1.0262,1.0213,1.0191,1.0132,1.0121,1.0055,1.0055,1.0067,1.0065,1.003,1.0032,0.9922,0.9905,0.9996,0.9995,0.9995,0,1.0568,1.0531,1.0487,1.0461,1.0438,1.0396,1.0367,1.0351,1.0321,1.0275,1.0246,1.0198,1.0158,1.0081,1.0053,1.0007,1.0005,0.9969,0.9997,1.0001,1.0001,1.0002,0.9997,0.9963,0.9962,0.9961,0.9961,0,1.0488,1.048,1.044,1.0396,1.0363,1.0327,1.0293,1.0271,1.0249,1.0216,1.0167,1.0136,1.0076,1.0027,0.9979,0.9956,0.9954,0.9953,0.9942,0.9942,0.995,0.9943,1.005,0.9954,0.9955,0.9956,0.9956,0.9956,1.0432,1.0399,1.0362,1.0318,1.029,1.0258,1.0223,1.0201,1.016,1.011,1.0103,1.005,1.0013,0.9949,0.9924,0.9882,0.989,0.9874,0.987,0.9865,0.9862,0.9959,0.9873,0.9874,0.9874,0.9874,0.9874,0,1.035,1.0327,1.0286,1.0238,1.0202,1.0206,1.0168,1.0137,1.0091,1.0057,1.0019,0.9962,0.9915,0.9885,0.9837,0.9809,0.9807,0.9797,0.9797,0.9791,0.9858,0.9872,0.9799,0.9799,0.9799,0.9799,0.9799,0.98,1.0302,1.0245,1.0233,1.0162,1.0139,1.0087,1.0065,1.0035,1.0008,0.9945,0.9906,0.9887,0.9854,0.9805,0.9762,0.9754,0.9735,0.9724,0.9717,0.9779,0.9787,0.9794,0.9806,0.9721,0.9721,0.9653,0.9652,0.9652]}]]